{"data":{"norad_id":69298,"epoch":"2026-09-19T19:18:36.082656Z","epoch_age_seconds":89126,"freshness":"FRESH","line1":"1 69298U 26119C   26262.80458429  .00019651  00000+0  60892-3 0  9990","line2":"2 69298  97.2832 287.5049 0000372 214.0431 146.0787 15.33472200 18558","mean_motion":15.334722,"eccentricity":3.72e-5,"inclination_deg":97.2832,"raan_deg":287.5049,"arg_perigee_deg":214.0431,"mean_anomaly_deg":146.0787,"bstar":0.00060892,"rev_number":1855,"period_min":93.904538993273,"perigee_km":465.20766571917,"apogee_km":465.71682950319,"semimajor_km":6843.5992476112,"source":"CELESTRAK","updated_at":"2026-09-20T09:00:44.154065Z"}}